C/2006 M1 ( LINEAR )

Japanese version
Home page
Updated on October 15, 2008

---------------------------------------------------------------------

* Profile

Discovery Date June 18, 2006
Magnitude 18.4 mag
Discoverer Lincoln Laboratory Near-Earth Asteroid Research project

* Pictures

* Orbital Elements

The following orbital elements are taken from MPC 60664:

Epoch 2007 Mar. 1.0 TT = JDT 2454160.5
T 2007 Feb. 13.9213 TT                                  MPC
q   3.556200             (2000.0)            P               Q
z  +0.006484       Peri.  122.8940      +0.7159035      +0.2764663
 +/-0.000001       Node   231.6152      -0.1578333      +0.9585751
e   0.976940       Incl.   54.8768      +0.6801256      -0.0685580
From 452 observations 2005 May 11-2007 Sept. 16, mean residual 0".5.

* Finding Charts

* Magnitudes Graph

        m1 = 11.2 + 5 log d + 5.0 log r

---------------------------------------------------------------------

The orbital elements are published at the MPC Ephemerides and Orbital Elements.
The charts are made with StellaNavigator Ver.2.0 for Windows (AstroArts / ASCII).
The magnitudes graphs are made with Comet for Windows.

---------------------------------------------------------------------

Copyright(C) Seiichi Yoshida (comet@aerith.net). All rights reserved.